Regional Weather Roundup
Issued by NWS

Home | Current Version | Previous Version | Text Only | Print | Product List | Glossary Off
Versions: 1 2 3 4 5 6 7 8 9 10 11 12 13 14 15 16 17 18 19 20 21 22 23 24 25 26 27 28 29 30 31 32 33 34 35 36 37 38 39 40 41 42 43 44 45 46 47 48 49

934
ASUS45 KBOU 021307
RWRCO

WEATHER ROUNDUP FOR COLORADO
NATIONAL WEATHER SERVICE DENVER/BOULDER CO
700 AM MDT MON MAY 02 2016

NOTE: "FAIR" INDICATES FEW OR NO CLOUDS BELOW 12000 FEET WITH NO
SIGNIFICANT WEATHER AND/OR OBSTRUCTIONS TO VISIBILITY.

COZ001>005-013-030-031-021400-
...NORTHWEST COLORADO...

CITY           SKY/WX    TMP DP  RH WIND       PRES   REMARKS
CRAIG          FAIR      26  22  84 CALM      30.27R
HAYDEN         CLOUDY    28  23  80 S3        30.25R
MEEKER         FAIR      32  28  85 CALM      30.25R
MOUNT WERNER   NOT AVBL
STEAMBOAT SPGS CLOUDY    31  25  79 NW3       30.25R
WALDEN         FAIR      19  14  79 SE5       30.28R WCI  13
$$

COZ006>008-011-021400-
...WEST CENTRAL VALLEYS...

CITY           SKY/WX    TMP DP  RH WIND       PRES   REMARKS
GRAND JUNCTION CLOUDY    45  40  82 SE8       30.21R
MONTROSE       CLOUDY    42  39  89 CALM      30.25R
EAGLE          PTCLDY    37  32  81 CALM      30.27R
RIFLE          CLOUDY    43  39  86 CALM      30.23R
DELTA          NOT AVBL
NUCLA          NOT AVBL
$$

COZ017>023-064>068-021400-
...SOUTHWEST COLORADO...

CITY           SKY/WX    TMP DP  RH WIND       PRES   REMARKS
DURANGO        FAIR      33  32  96 E3        30.26R
CORTEZ         FAIR      34  31  88 CALM      30.25R
PAGOSA SPRINGS CLOUDY    34  34 100 CALM      30.27R
TELLURIDE      CLOUDY    30  30 100 CALM      30.29R
WOLF CREEK PAS FOG       19  19 100 SW6       30.31R VSB 1/4 WCI  11
$$

COZ009-010-012-014-032>034-037-058>063-021400-
...CENTRAL COLORADO...

CITY           SKY/WX    TMP DP  RH WIND       PRES   REMARKS
ASPEN          MOCLDY    34  28  79 CALM      30.23R
BUENA VISTA    MOCLDY    29  26  89 CALM      30.26S
COPPER MTN     NOT AVBL
BERTHOUD PASS  FAIR      14   5  67 N20G28    30.26R WCI  -3
COTTONWOOD PAS FAIR      28  25  86 CALM      30.26R
GUNNISON       CLOUDY    34  28  80 CALM      30.28R
KREMMLING      FAIR      23  21  93 CALM      30.31R
LEADVILLE      FAIR      17  14  88 CALM      30.25R
MONARCH PASS   FOG       19  18  93 MISG      30.38R VSB<1/4
SALIDA         MOCLDY    30  27  89 SW5       30.35R WCI  25
SUNLIGHT       CLOUDY    28  28 100 CALM      30.32R
WILKERSON PASS FAIR     N/A N/A N/A N9G21     30.26S
$$

COZ069>075-021400-
...SAN LUIS VALLEY/SANGRE DE CRISTO MOUNTAINS...

CITY           SKY/WX    TMP DP  RH WIND       PRES   REMARKS
ALAMOSA        CLOUDY    33  29  85 NE5       30.26R WCI  29
LA VETA PASS   FOG       27  23  86 MISG      30.23S VSB 1/2
SAGUACHE       CLOUDY    32  30  93 CALM      30.27R
$$

COZ035-036-038>040-021400-
...NORTHERN COLORADO FRONT RANGE...

CITY           SKY/WX    TMP DP  RH WIND       PRES   REMARKS
DENVER INTL AP FAIR      31  24  75 SW7       30.25R WCI  24
DMNS CITY PARK   N/A     32  28  85 E9        30.26S WCI  24
AURORA         FAIR      28  25  90 S6        30.26R WCI  21
FRONT RANGE AP SUNNY     30  27  86 SW6       30.26  WCI  24
ERIE MUNI ARPT FAIR      28  28  98 CALM      30.27R
BOULDER MUN AP FAIR      32  27  80 SW3       30.26R
CENTENNIAL     FAIR      26  23  88 SE3       30.25R
BROOMFIELD     SUNNY     32  27  80 W3        30.26R
FORT COLLINS   FAIR      30  25  80 CALM      30.27R
LONGMONT       FAIR      33  26  75 W5        30.28R HAZE    WCI  29
$$

COZ041-046-047-076>085-087-088-021400-
...PIKES PEAK/PALMER DIVIDE AND SOUTHERN FOOTHILLS...

CITY           SKY/WX    TMP DP  RH WIND       PRES   REMARKS
COLO. SPRINGS  FAIR      30  22  72 N6        30.26R WCI  24
A. F. ACADEMY  FAIR      19  16  86 N7        30.24R WCI  10
SCHRIEVER AFB  NOT AVBL
ELLICOTT       NOT AVBL
FALCON         FAIR      28  21  77 CALM      30.25R
FORT CARSON    FAIR      31  26  82 NW5       30.24R WCI  26
LIMON          FAIR      25  22  88 NW5       30.26R WCI  19
MONUMENT HILL  FAIR      21  18  86 SW5       30.25R WCI  15
TRINIDAD       CLOUDY    36  31  82 W9        30.26R
$$

COZ042>045-048>051-090-091-021400-
...NORTHEAST COLORADO...

CITY           SKY/WX    TMP DP  RH WIND       PRES   REMARKS
GREELEY ARPT     N/A     28  27  93 CALM      30.28R
AKRON          FAIR      30  26  85 W13       30.24R WCI  20
BURLINGTON     FAIR      31  26  82 W6        30.24S WCI  25
WRAY           NOT AVBL
STERLING       FAIR      30  30 100 SW3       30.24R
HOLYOKE        NOT AVBL
FORT MORGAN    NOT AVBL
$$

COZ086-089-092>099-021400-
...SOUTHEAST COLORADO...

CITY           SKY/WX    TMP DP  RH WIND       PRES   REMARKS
PUEBLO         FAIR      34  30  85 CALM      30.27R
LA JUNTA       FAIR      34  31  88 W8        30.27R WCI  27
LAMAR          FAIR      33  31  92 CALM      30.25R
SPRINGFIELD      N/A     33  31  92 NW9       30.25R WCI  25
$$




USA.gov is the U.S. government's official web portal to all federal, state and local government web resources and services.